SCP
-0 -0 0 0 -0 0 0 0 0 0 0 0 0 0 0 0 0 0 0 0 0 0 0 0 0 0 0 0 0 0 0 0 0 0 0 0 0 0 0 0 2 1 1 1
-0 -0 -0 -0 -0 -0 -0 -0 -0 -0 -0 0 0 0 0 0 0 0 0 0 0 0 0 0 0 0 0 0 0 0 0 0 0 0 0 0 0 0 1 0 2 1 1 1
0 -0 0 -0 -0 -0 -0 -0 -0 -0 -0 0 0 0 0 0 0 0 0 0 0 0 0 0 0 0 0 0 0 0 0 0 0 0 0 0 0 0 0 1 2 0 2 2
-0 -0 -0 0 -0 -0 0 0 0 0 0 -0 0 0 0 0 0 0 0 0 0 0 0 0 0 0 0 0 0 0 0 0 0 0 0 0 0 0 0 1 2 1 2 2
0 0 -0 -0 0 0 0 0 0 0 0 0 0 0 0 0 0 0 0 0 0 0 0 0 0 0 0 0 0 0 0 0 0 0 0 0 0 0 0 2 2 2 2 2
0 0 0 0 0 0 0 0 0 0 0 0 0 0 0 0 0 0 0 0 0 0 0 0 0 0 0 0 0 0 0 0 0 0 0 0 0 0 0 2 2 2 2 3
0 0 0 0 0 0 0 0 0 0 0 0 0 0 0 0 -0 0 0 0 0 0 0 0 0 0 -0 -0 -0 0 0 0 0 0 0 0 0 0 0 2 2 2 2 3
0 0 0 0 0 0 0 -0 0 0 0 -0 -0 0 -0 -0 -0 -0 0 0 0 0 -0 0 0 0 0 0 0 0 0 0 0 0 0 0 0 -0 1 1 2 2 3 4
0 0 -0 0 0 0 0 0 -0 0 -0 -0 -0 -0 -0 -0 0 0 -0 0 0 0 0 -0 0 0 0 0 0 0 0 -0 0 0 0 0 -0 0 1 1 2 3 3 2
0 0 -0 0 0 0 0 0 0 -0 -0 -0 0 0 -0 -0 -0 -0 0 0 -0 -0 -0 -0 -0 0 0 0 -0 0 -0 0 0 0 0 -0 0 1 2 2 2 3 2 1
0 0 -0 0 0 0 -0 -0 0 -0 -0 -0 -0 0 -0 0 0 0 0 0 0 0 0 -0 -0 -0 0 -0 -0 0 0 0 0 0 -0 0 1 1 1 1 2 2 1 2
0 -0 0 -0 0 0 -0 0 0 -0 -0 -0 -0 0 0 0 0 0 0 0 0 0 -0 -0 -0 -0 -0 0 0 -0 0 0 0 -0 0 0 0 0 0 0 0 0 0 1
0 0 0 0 0 0 -0 0 0 0 0 -0 -0 -0 0 0 0 0 0 0 -0 -0 -0 -0 -0 0 -0 0 0 0 0 0 0 0 0 0 0 0 0 0 0 0 0 0
0 0 -0 0 -0 0 -0 0 -0 -0 0 0 0 0 0 -0 -0 0 0 0 -0 -0 -0 -0 -0 0 0 0 0 0 0 0 0 0 0 0 0 0 0 0 0 0 0 0
0 0 -0 0 0 0 0 0 -0 -0 -0 -0 -0 -0 -0 0 0 0 -0 0 0 -0 0 0 0 0 0 0 0 0 0 0 0 0 0 0 0 0 0 0 0 0 0 0
0 0 0 0 0 0 -0 -0 0 -0 -0 -0 -0 0 -0 -0 -0 0 -0 -0 0 0 0 -0 0 0 0 0 0 0 0 0 0 0 0 0 0 0 0 0 0 0 0 0
0 -0 -0 0 0 -0 0 0 -0 -0 -0 -0 -0 0 0 -0 -0 0 0 0 0 0 0 0 0 0 0 0 0 0 0 0 0 0 0 0 0 0 0 0 0 0 0 0
0 0 -0 -0 0 0 -0 -0 -0 -0 0 0 -0 0 -0 0 0 0 0 0 0 0 0 0 0 0 0 0 0 0 -0 0 0 0 0 0 0 0 0 0 0 0 0 0
0 -0 -0 -0 0 0 -0 -0 -0 0 0 0 -0 0 0 0 0 0 0 0 0 0 0 0 0 0 -0 0 0 0 0 0 0 0 0 0 0 0 0 0 0 0 0 0
0 0 0 -0 0 0 -0 -0 -0 -0 -0 0 0 0 0 0 0 0 0 0 0 0 0 0 0 0 0 0 0 0 0 0 0 0 0 0 0 0 0 0 0 0 0 0
-0 -0 -0 -0 0 -0 -0 -0 -0 -0 0 0 0 0 0 0 0 0 0 0 0 0 0 0 0 0 0 0 0 0 0 0 0 0 0 0 0 0 0 0 0 0 0 0
-0 -0 -0 -0 -0 0 -0 -0 0 0 0 0 0 0 0 0 0 0 0 0 0 0 0 0 0 0 0 0 0 0 0 0 0 0 0 0 0 0 0 0 0 0 0 0
-0 -0 -0 -0 -0 -0 -0 -0 -0 -0 -0 0 0 0 0 0 0 0 0 0 0 0 0 0 0 0 0 0 0 0 0 0 0 0 0 0 0 0 0 0 0 0 0 0
-0 -0 -0 -0 -0 -0 -0 -0 -0 -0 -0 0 0 0 0 0 0 0 0 0 0 0 0 0 0 0 0 0 0 0 0 0 0 0 0 0 0 0 0 0 0 0 0 0
-0 -0 -0 -0 -0 -0 -0 0 -0 -0 0 0 0 0 0 0 0 0 0 0 0 0 0 0 0 0 0 0 0 0 0 0 0 0 0 0 0 0 0 0 0 0 0 0
0 -0 -0 -0 -0 -0 -0 0 0 0 -0 0 0 0 0 0 0 0 0 0 0 0 0 0 0 0 0 0 0 0 0 0 0 0 0 0 0 0 0 0 0 0 0 0
-0 -0 0 -0 -0 -0 0 -0 -0 0 0 -0 0 0 0 0 0 0 0 0 0 0 0 0 0 0 0 0 0 0 0 0 0 0 0 0 0 0 0 0 0 0 0 0
Wind_Speed_500mb
38 42 44 45 41 41 37 44 39 38 42 35 41 43 46 45 44 44 44 39 39 39 41 42 46 48 51 51 50 49 51 53 54 57 58 56 58 58 53 54 50 56 54 54
44 45 44 43 42 44 47 52 50 51 54 46 54 62 53 41 44 30 32 42 41 44 52 56 60 56 57 59 61 58 60 64 62 58 57 61 61 62 58 56 50 60 60 62
29 32 24 32 38 39 43 48 43 44 45 34 41 41 38 18 27 35 42 53 55 59 62 61 58 59 66 74 75 75 75 74 68 63 61 61 58 59 62 62 55 66 67 66
22 31 35 25 28 24 24 28 24 32 29 41 36 40 34 31 34 44 54 56 57 61 64 70 76 80 79 81 86 83 81 77 71 65 63 61 60 61 63 63 61 66 71 71
11 18 35 45 11 21 25 31 36 35 39 35 42 48 46 44 48 53 54 60 67 69 74 80 74 68 79 84 79 80 82 76 70 63 62 60 62 63 70 64 63 70 75 71
14 12 15 19 6 13 24 31 28 37 36 35 47 34 34 58 62 68 69 76 77 76 79 81 80 72 74 76 83 80 72 72 64 60 60 62 59 65 70 62 67 72 76 72
22 16 20 20 25 16 17 19 55 56 59 58 35 42 70 72 72 71 75 81 78 73 82 69 69 70 78 80 76 69 67 67 64 59 63 63 63 69 56 65 66 71 70 68
14 12 15 18 30 11 32 61 59 61 63 63 68 72 77 75 77 77 80 80 77 82 78 72 79 72 77 75 67 63 62 63 60 60 63 60 64 68 56 70 68 67 66 69
10 11 45 51 41 53 56 49 64 58 66 74 77 84 87 85 84 87 88 78 76 70 69 74 79 74 73 66 66 67 59 54 56 52 57 58 63 55 59 69 73 79 79 71
22 7 41 53 58 47 53 61 64 68 70 79 88 86 85 84 78 73 69 65 63 62 68 78 73 67 64 56 54 52 50 64 57 61 56 53 49 65 75 82 87 72 70 71
24 33 58 28 46 51 60 70 83 75 74 82 79 74 71 70 69 67 65 69 69 69 72 78 72 62 58 49 52 54 53 56 58 54 42 49 57 67 77 76 82 84 79 85
11 50 43 56 67 85 92 80 84 68 85 75 69 69 66 69 69 67 67 69 70 71 70 78 74 57 47 41 44 50 55 46 41 35 34 67 70 67 72 69 66 62 69 60
16 49 66 80 90 69 70 92 75 75 69 71 64 57 58 62 64 68 72 72 73 74 75 62 56 50 41 40 39 41 41 38 31 60 80 72 69 73 81 75 66 65 58 49
40 50 56 54 70 72 77 87 72 72 66 60 60 61 60 63 67 67 73 73 67 66 66 58 51 50 40 26 32 33 29 29 50 51 62 71 78 81 82 76 69 66 54 47
47 57 60 63 68 72 86 77 71 66 70 66 61 60 62 66 67 73 68 68 62 59 58 54 52 49 39 37 29 31 29 55 64 68 69 77 77 70 64 57 48 64 54 47
58 55 56 60 64 73 82 67 68 68 72 67 67 69 68 64 63 62 55 52 51 58 56 57 54 38 31 33 31 46 60 68 70 73 64 72 57 57 59 49 50 50 46 55
50 54 62 70 70 73 75 70 62 67 68 66 67 64 57 52 55 53 50 40 37 19 13 30 41 43 38 41 57 61 69 84 76 77 75 68 63 56 50 51 51 48 45 52
43 49 54 62 60 74 82 70 69 67 63 62 64 58 53 50 48 45 33 22 25 37 44 42 41 52 42 72 70 74 72 80 72 69 58 52 60 59 53 51 44 50 48 56
43 49 53 61 66 76 82 75 78 74 68 65 64 58 57 51 45 35 36 48 44 41 39 40 58 67 73 56 57 62 64 61 54 56 56 62 58 53 56 48 54 53 68 50
44 48 48 55 63 79 82 85 84 81 74 71 66 56 52 40 36 29 36 43 49 36 37 47 45 57 62 58 54 61 57 58 54 60 62 58 62 60 55 52 59 74 63 53
43 47 49 52 58 67 90 84 91 86 81 73 72 66 56 47 51 52 51 49 46 41 44 47 45 52 46 53 49 51 56 51 66 66 69 70 60 62 52 52 64 63 55 48
44 44 47 48 53 63 74 86 77 92 87 78 75 70 59 57 53 54 51 47 39 33 39 43 47 46 40 52 51 51 49 56 63 59 62 71 76 71 59 51 58 57 54 53
42 42 43 50 48 51 68 80 78 86 94 80 75 69 62 53 52 48 48 44 38 36 36 44 46 49 45 41 47 53 60 63 61 62 71 76 71 65 56 64 59 51 53 53
41 42 42 45 48 52 63 79 74 79 84 89 74 69 66 56 45 39 33 29 29 30 32 29 26 19 35 54 59 62 62 64 66 71 80 80 72 64 60 64 57 51 49 51
39 39 37 42 47 55 55 65 69 70 80 81 83 72 66 58 48 40 35 31 28 27 28 26 24 23 38 48 51 56 59 64 67 68 70 70 64 61 59 69 57 52 47 45
49 50 42 40 39 46 48 56 60 62 69 75 83 83 74 65 53 42 32 33 33 29 28 32 32 36 42 46 49 50 50 50 53 59 63 59 63 60 57 61 56 54 53 50
32 44 54 50 39 43 52 47 51 56 57 62 69 71 72 64 61 52 41 31 35 35 32 32 34 39 42 43 44 45 47 51 52 53 55 60 60 60 59 58 58 57 55 55
Wind_Direction_500mb
273 285 287 283 268 249 243 271 267 274 273 259 263 236 262 287 281 274 272 268 264 265 272 278 283 287 285 279 278 276 277 276 274 276 272 272 273 272 273 272 254 252 242 237
275 278 272 284 268 264 254 250 250 253 258 264 273 278 277 297 287 273 281 280 278 280 283 284 284 282 280 282 282 280 279 278 277 271 265 266 268 266 269 268 249 246 235 228
271 271 281 267 257 256 252 255 256 259 263 263 265 277 263 277 281 295 291 292 290 287 284 285 287 283 278 279 279 276 276 276 273 268 264 260 262 262 262 266 242 239 229 221
281 295 276 269 324 286 296 289 281 271 278 274 294 313 301 288 300 288 277 287 294 294 293 288 284 279 278 280 279 273 272 271 266 263 260 258 259 259 257 262 238 230 222 213
249 274 289 292 358 345 338 305 306 283 295 306 319 310 290 285 292 306 301 297 289 285 286 286 284 283 282 280 273 270 267 264 261 258 255 256 256 257 256 253 231 222 214 208
229 264 276 315 1 339 319 287 19 353 336 320 307 293 295 323 313 304 294 288 285 289 292 289 287 283 276 273 273 266 262 259 256 253 253 255 257 256 258 234 223 215 208 201
237 257 274 1 345 335 274 321 328 319 318 323 315 301 301 298 290 289 286 286 290 296 293 282 284 280 281 277 270 265 261 259 255 255 250 251 253 258 239 223 213 207 199 192
246 242 259 13 343 308 317 312 318 317 309 301 300 301 299 295 290 292 294 292 291 291 284 283 284 284 280 274 269 263 259 257 253 251 252 256 257 246 237 220 210 200 187 184
268 294 314 321 322 314 318 306 310 307 306 306 307 303 300 299 294 292 290 288 288 285 283 280 286 284 278 274 266 266 255 245 255 254 252 251 253 229 214 199 186 173 167 159
318 269 321 325 308 314 315 313 313 308 305 307 304 298 292 292 292 291 290 288 287 286 285 284 282 281 277 270 264 258 251 245 257 259 255 248 221 193 179 170 170 163 166 161
292 293 327 307 321 317 309 315 313 309 305 301 295 291 290 289 289 287 286 285 285 282 281 281 284 281 274 264 264 253 252 248 255 252 238 211 189 185 177 178 178 174 171 170
285 304 295 295 297 298 298 310 311 309 311 303 297 292 292 288 284 284 284 284 283 280 278 276 281 277 270 256 255 253 259 264 258 219 197 178 163 156 159 168 171 162 158 155
289 292 296 296 295 296 318 315 311 314 309 308 302 298 293 290 287 286 285 282 280 278 277 274 271 268 261 260 250 250 263 254 210 168 173 163 159 156 144 141 143 145 154 165
310 311 312 316 320 325 323 318 315 318 318 312 303 304 299 295 296 289 286 285 283 279 273 269 264 262 252 263 239 234 229 206 196 162 155 151 149 146 143 144 145 150 156 163
318 318 310 319 324 326 327 328 325 321 323 321 319 311 306 302 299 296 295 290 283 276 265 255 254 249 241 243 230 212 204 158 161 161 160 159 152 141 140 140 142 150 151 152
316 317 322 331 331 334 329 329 334 329 330 327 323 318 315 310 303 299 298 300 292 280 269 246 234 227 205 199 188 177 168 160 157 150 139 137 135 138 136 138 139 140 145 153
322 325 339 339 338 340 334 334 330 334 333 329 325 323 318 321 324 322 321 313 301 335 27 166 181 187 187 169 166 158 149 151 139 146 142 149 142 132 139 138 137 140 144 156
329 330 344 342 344 342 339 340 342 344 342 341 336 341 335 340 336 331 332 356 82 111 119 121 149 158 169 160 158 149 145 148 146 144 140 137 133 135 132 135 138 141 145 138
342 340 348 350 350 347 347 346 350 352 354 355 0 1 352 350 353 6 40 64 104 101 107 103 126 138 145 135 137 145 145 146 145 143 142 136 135 132 137 136 140 140 141 138
347 347 352 353 354 350 348 359 1 359 0 4 9 13 6 10 20 35 66 64 81 77 105 122 129 140 140 144 148 145 143 143 140 143 140 141 139 134 134 137 140 147 148 145
346 349 354 357 353 349 0 360 1 7 7 11 13 17 17 21 40 46 67 73 75 98 106 113 122 123 138 142 133 138 135 137 144 147 148 143 137 134 135 141 152 157 157 157
345 349 351 353 355 352 355 3 359 11 16 16 18 20 22 31 46 55 56 57 66 81 108 118 120 120 128 128 131 135 142 145 144 155 154 149 149 145 137 140 147 153 155 155
345 349 352 356 357 353 359 1 3 7 16 22 24 23 26 27 36 43 48 56 73 87 101 113 124 128 126 127 139 144 145 146 147 148 149 152 150 149 148 144 143 143 151 153
347 352 353 357 358 0 1 1 6 14 14 20 28 28 24 28 39 49 47 57 75 94 108 119 129 131 135 137 140 143 146 148 150 152 150 151 146 142 146 149 146 141 139 152
357 352 353 358 2 3 4 358 6 14 21 16 25 29 30 30 29 30 50 65 79 95 107 111 112 123 133 138 140 142 146 151 154 156 158 159 159 156 154 156 149 146 146 146
12 9 2 358 358 6 8 1 3 4 19 19 23 25 29 28 30 36 46 69 80 93 107 117 130 135 136 137 140 144 147 151 156 160 162 161 158 160 157 160 157 154 149 141
356 356 13 13 10 17 17 3 4 5 12 22 24 26 27 28 32 37 42 54 78 91 104 117 131 138 142 145 149 153 154 156 160 162 163 161 162 162 161 159 156 153 149 144
Wind_Speed_850mb
38 42 44 45 41 41 37 44 39 38 42 35 41 43 46 45 44 44 44 39 39 39 41 42 46 48 51 51 50 49 51 53 54 57 58 56 58 58 53 54 50 56 54 54
44 45 44 43 42 44 47 52 50 51 54 46 54 62 53 41 44 30 32 42 41 44 52 56 60 56 57 59 61 58 60 64 62 58 57 61 61 62 58 56 50 60 60 62
29 32 24 32 38 39 43 48 43 44 45 34 41 41 38 18 27 35 42 53 55 59 62 61 58 59 66 74 75 75 75 74 68 63 61 61 58 59 62 62 55 66 67 66
22 31 35 25 28 24 24 28 24 32 29 41 36 40 34 31 34 44 54 56 57 61 64 70 76 80 79 81 86 83 81 77 71 65 63 61 60 61 63 63 61 66 71 71
11 18 35 45 11 21 25 31 36 35 39 35 42 48 46 44 48 53 54 60 67 69 74 80 74 68 79 84 79 80 82 76 70 63 62 60 62 63 70 64 63 70 75 71
14 12 15 19 6 13 24 31 28 37 36 35 47 34 34 58 62 68 69 76 77 76 79 81 80 72 74 76 83 80 72 72 64 60 60 62 59 65 70 62 67 72 76 72
22 16 20 20 25 16 17 19 55 56 59 58 35 42 70 72 72 71 75 81 78 73 82 69 69 70 78 80 76 69 67 67 64 59 63 63 63 69 56 65 66 71 70 68
14 12 15 18 30 11 32 61 59 61 63 63 68 72 77 75 77 77 80 80 77 82 78 72 79 72 77 75 67 63 62 63 60 60 63 60 64 68 56 70 68 67 66 69
10 11 45 51 41 53 56 49 64 58 66 74 77 84 87 85 84 87 88 78 76 70 69 74 79 74 73 66 66 67 59 54 56 52 57 58 63 55 59 69 73 79 79 71
22 7 41 53 58 47 53 61 64 68 70 79 88 86 85 84 78 73 69 65 63 62 68 78 73 67 64 56 54 52 50 64 57 61 56 53 49 65 75 82 87 72 70 71
24 33 58 28 46 51 60 70 83 75 74 82 79 74 71 70 69 67 65 69 69 69 72 78 72 62 58 49 52 54 53 56 58 54 42 49 57 67 77 76 82 84 79 85
11 50 43 56 67 85 92 80 84 68 85 75 69 69 66 69 69 67 67 69 70 71 70 78 74 57 47 41 44 50 55 46 41 35 34 67 70 67 72 69 66 62 69 60
16 49 66 80 90 69 70 92 75 75 69 71 64 57 58 62 64 68 72 72 73 74 75 62 56 50 41 40 39 41 41 38 31 60 80 72 69 73 81 75 66 65 58 49
40 50 56 54 70 72 77 87 72 72 66 60 60 61 60 63 67 67 73 73 67 66 66 58 51 50 40 26 32 33 29 29 50 51 62 71 78 81 82 76 69 66 54 47
47 57 60 63 68 72 86 77 71 66 70 66 61 60 62 66 67 73 68 68 62 59 58 54 52 49 39 37 29 31 29 55 64 68 69 77 77 70 64 57 48 64 54 47
58 55 56 60 64 73 82 67 68 68 72 67 67 69 68 64 63 62 55 52 51 58 56 57 54 38 31 33 31 46 60 68 70 73 64 72 57 57 59 49 50 50 46 55
50 54 62 70 70 73 75 70 62 67 68 66 67 64 57 52 55 53 50 40 37 19 13 30 41 43 38 41 57 61 69 84 76 77 75 68 63 56 50 51 51 48 45 52
43 49 54 62 60 74 82 70 69 67 63 62 64 58 53 50 48 45 33 22 25 37 44 42 41 52 42 72 70 74 72 80 72 69 58 52 60 59 53 51 44 50 48 56
43 49 53 61 66 76 82 75 78 74 68 65 64 58 57 51 45 35 36 48 44 41 39 40 58 67 73 56 57 62 64 61 54 56 56 62 58 53 56 48 54 53 68 50
44 48 48 55 63 79 82 85 84 81 74 71 66 56 52 40 36 29 36 43 49 36 37 47 45 57 62 58 54 61 57 58 54 60 62 58 62 60 55 52 59 74 63 53
43 47 49 52 58 67 90 84 91 86 81 73 72 66 56 47 51 52 51 49 46 41 44 47 45 52 46 53 49 51 56 51 66 66 69 70 60 62 52 52 64 63 55 48
44 44 47 48 53 63 74 86 77 92 87 78 75 70 59 57 53 54 51 47 39 33 39 43 47 46 40 52 51 51 49 56 63 59 62 71 76 71 59 51 58 57 54 53
42 42 43 50 48 51 68 80 78 86 94 80 75 69 62 53 52 48 48 44 38 36 36 44 46 49 45 41 47 53 60 63 61 62 71 76 71 65 56 64 59 51 53 53
41 42 42 45 48 52 63 79 74 79 84 89 74 69 66 56 45 39 33 29 29 30 32 29 26 19 35 54 59 62 62 64 66 71 80 80 72 64 60 64 57 51 49 51
39 39 37 42 47 55 55 65 69 70 80 81 83 72 66 58 48 40 35 31 28 27 28 26 24 23 38 48 51 56 59 64 67 68 70 70 64 61 59 69 57 52 47 45
49 50 42 40 39 46 48 56 60 62 69 75 83 83 74 65 53 42 32 33 33 29 28 32 32 36 42 46 49 50 50 50 53 59 63 59 63 60 57 61 56 54 53 50
32 44 54 50 39 43 52 47 51 56 57 62 69 71 72 64 61 52 41 31 35 35 32 32 34 39 42 43 44 45 47 51 52 53 55 60 60 60 59 58 58 57 55 55
Wind_Direction_850mb
273 285 287 283 268 249 243 271 267 274 273 259 263 236 262 287 281 274 272 268 264 265 272 278 283 287 285 279 278 276 277 276 274 276 272 272 273 272 273 272 254 252 242 237
275 278 272 284 268 264 254 250 250 253 258 264 273 278 277 297 287 273 281 280 278 280 283 284 284 282 280 282 282 280 279 278 277 271 265 266 268 266 269 268 249 246 235 228
271 271 281 267 257 256 252 255 256 259 263 263 265 277 263 277 281 295 291 292 290 287 284 285 287 283 278 279 279 276 276 276 273 268 264 260 262 262 262 266 242 239 229 221
281 295 276 269 324 286 296 289 281 271 278 274 294 313 301 288 300 288 277 287 294 294 293 288 284 279 278 280 279 273 272 271 266 263 260 258 259 259 257 262 238 230 222 213
249 274 289 292 358 345 338 305 306 283 295 306 319 310 290 285 292 306 301 297 289 285 286 286 284 283 282 280 273 270 267 264 261 258 255 256 256 257 256 253 231 222 214 208
229 264 276 315 1 339 319 287 19 353 336 320 307 293 295 323 313 304 294 288 285 289 292 289 287 283 276 273 273 266 262 259 256 253 253 255 257 256 258 234 223 215 208 201
237 257 274 1 345 335 274 321 328 319 318 323 315 301 301 298 290 289 286 286 290 296 293 282 284 280 281 277 270 265 261 259 255 255 250 251 253 258 239 223 213 207 199 192
246 242 259 13 343 308 317 312 318 317 309 301 300 301 299 295 290 292 294 292 291 291 284 283 284 284 280 274 269 263 259 257 253 251 252 256 257 246 237 220 210 200 187 184
268 294 314 321 322 314 318 306 310 307 306 306 307 303 300 299 294 292 290 288 288 285 283 280 286 284 278 274 266 266 255 245 255 254 252 251 253 229 214 199 186 173 167 159
318 269 321 325 308 314 315 313 313 308 305 307 304 298 292 292 292 291 290 288 287 286 285 284 282 281 277 270 264 258 251 245 257 259 255 248 221 193 179 170 170 163 166 161
292 293 327 307 321 317 309 315 313 309 305 301 295 291 290 289 289 287 286 285 285 282 281 281 284 281 274 264 264 253 252 248 255 252 238 211 189 185 177 178 178 174 171 170
285 304 295 295 297 298 298 310 311 309 311 303 297 292 292 288 284 284 284 284 283 280 278 276 281 277 270 256 255 253 259 264 258 219 197 178 163 156 159 168 171 162 158 155
289 292 296 296 295 296 318 315 311 314 309 308 302 298 293 290 287 286 285 282 280 278 277 274 271 268 261 260 250 250 263 254 210 168 173 163 159 156 144 141 143 145 154 165
310 311 312 316 320 325 323 318 315 318 318 312 303 304 299 295 296 289 286 285 283 279 273 269 264 262 252 263 239 234 229 206 196 162 155 151 149 146 143 144 145 150 156 163
318 318 310 319 324 326 327 328 325 321 323 321 319 311 306 302 299 296 295 290 283 276 265 255 254 249 241 243 230 212 204 158 161 161 160 159 152 141 140 140 142 150 151 152
316 317 322 331 331 334 329 329 334 329 330 327 323 318 315 310 303 299 298 300 292 280 269 246 234 227 205 199 188 177 168 160 157 150 139 137 135 138 136 138 139 140 145 153
322 325 339 339 338 340 334 334 330 334 333 329 325 323 318 321 324 322 321 313 301 335 27 166 181 187 187 169 166 158 149 151 139 146 142 149 142 132 139 138 137 140 144 156
329 330 344 342 344 342 339 340 342 344 342 341 336 341 335 340 336 331 332 356 82 111 119 121 149 158 169 160 158 149 145 148 146 144 140 137 133 135 132 135 138 141 145 138
342 340 348 350 350 347 347 346 350 352 354 355 0 1 352 350 353 6 40 64 104 101 107 103 126 138 145 135 137 145 145 146 145 143 142 136 135 132 137 136 140 140 141 138
347 347 352 353 354 350 348 359 1 359 0 4 9 13 6 10 20 35 66 64 81 77 105 122 129 140 140 144 148 145 143 143 140 143 140 141 139 134 134 137 140 147 148 145
346 349 354 357 353 349 0 360 1 7 7 11 13 17 17 21 40 46 67 73 75 98 106 113 122 123 138 142 133 138 135 137 144 147 148 143 137 134 135 141 152 157 157 157
345 349 351 353 355 352 355 3 359 11 16 16 18 20 22 31 46 55 56 57 66 81 108 118 120 120 128 128 131 135 142 145 144 155 154 149 149 145 137 140 147 153 155 155
345 349 352 356 357 353 359 1 3 7 16 22 24 23 26 27 36 43 48 56 73 87 101 113 124 128 126 127 139 144 145 146 147 148 149 152 150 149 148 144 143 143 151 153
347 352 353 357 358 0 1 1 6 14 14 20 28 28 24 28 39 49 47 57 75 94 108 119 129 131 135 137 140 143 146 148 150 152 150 151 146 142 146 149 146 141 139 152
357 352 353 358 2 3 4 358 6 14 21 16 25 29 30 30 29 30 50 65 79 95 107 111 112 123 133 138 140 142 146 151 154 156 158 159 159 156 154 156 149 146 146 146
12 9 2 358 358 6 8 1 3 4 19 19 23 25 29 28 30 36 46 69 80 93 107 117 130 135 136 137 140 144 147 151 156 160 162 161 158 160 157 160 157 154 149 141
356 356 13 13 10 17 17 3 4 5 12 22 24 26 27 28 32 37 42 54 78 91 104 117 131 138 142 145 149 153 154 156 160 162 163 161 162 162 161 159 156 153 149 144